Вернуться в каталог

FENGYUN 1C DEB

АктивенPO
NORAD 31665·DEBRIS·🇨🇳 China

Запущен May 10, 1999 с Taiyuan Satellite Launch Center

Loading…

Ближайшие Пролёты (ближайшие 24 часа)

TLE

УстаревающийSource: Space-Track

Эпоха: Sep 8, 2026, 00:12 UTC

1 31665U 99025CBX 26251.00875158  .00000965  00000-0  76539-3 0  9999
2 31665  98.4329 272.3114 0187527 167.9162 192.6589 13.85506299969192

Отслеживайте FENGYUN 1C DEB в реальном времени с AllMySat

Download on the App Store